TimeCST,TemperatureF,Dew PointF,Humidity,Sea Level PressureIn,VisibilityMPH,Wind Direction,Wind SpeedMPH,Gust SpeedMPH,PrecipitationIn,Events,Conditions,WindDirDegrees,DateUTC
12:55 AM,-9.0,-13.0,83,30.53,10.0,NW,4.6,-,N/A,,Clear,310,2013-02-20 06:55:00
1:55 AM,-9.0,-13.0,83,30.52,10.0,NW,4.6,-,N/A,,Clear,320,2013-02-20 07:55:00
2:55 AM,-9.0,-13.0,83,30.50,10.0,NE,5.8,-,N/A,,Clear,40,2013-02-20 08:55:00
3:55 AM,-9.9,-16.1,74,30.51,10.0,Calm,Calm,-,N/A,,Clear,0,2013-02-20 09:55:00
4:55 AM,-9.9,-14.1,82,30.48,10.0,Calm,Calm,-,N/A,,Clear,0,2013-02-20 10:55:00
5:55 AM,-9.0,-14.1,79,30.47,10.0,East,4.6,-,N/A,,Clear,100,2013-02-20 11:55:00
6:55 AM,-6.0,-11.9,75,30.45,10.0,ESE,6.9,-,N/A,,Clear,110,2013-02-20 12:55:00
7:55 AM,-4.0,-11.0,72,30.46,10.0,ESE,6.9,-,N/A,,Mostly Cloudy,120,2013-02-20 13:55:00
8:55 AM,-0.4,-9.4,66,30.35,10.0,SE,6.9,-,N/A,,Overcast,140,2013-02-20 14:55:00
9:55 AM,1.9,-6.0,69,30.45,10.0,SE,9.2,-,N/A,,Overcast,140,2013-02-20 15:55:00
10:55 AM,5.0,-2.9,70,30.45,10.0,SE,11.5,-,N/A,,Overcast,130,2013-02-20 16:55:00
11:55 AM,7.0,-0.9,70,30.43,10.0,SE,10.4,-,N/A,,Overcast,140,2013-02-20 17:55:00
12:55 PM,10.0,1.0,67,30.41,10.0,SSE,13.8,-,N/A,,Overcast,160,2013-02-20 18:55:00
1:55 PM,12.9,3.9,67,30.38,10.0,SE,11.5,-,N/A,,Overcast,130,2013-02-20 19:55:00
2:55 PM,15.1,5.0,64,30.34,10.0,SE,13.8,-,N/A,,Mostly Cloudy,130,2013-02-20 20:55:00
3:55 PM,16.0,6.1,65,30.32,10.0,SE,16.1,-,N/A,,Clear,130,2013-02-20 21:55:00
4:55 PM,17.1,7.0,65,30.31,10.0,SE,12.7,-,N/A,,Partly Cloudy,130,2013-02-20 22:55:00
5:55 PM,17.1,8.1,68,30.30,10.0,ESE,11.5,-,N/A,,Overcast,120,2013-02-20 23:55:00
6:55 PM,17.1,9.0,71,30.30,10.0,ESE,12.7,-,N/A,,Overcast,120,2013-02-21 00:55:00
7:55 PM,17.1,8.1,68,30.30,10.0,SE,12.7,-,N/A,,Overcast,130,2013-02-21 01:55:00
8:55 PM,15.8,8.6,73,30.21,10.0,ESE,12.7,-,N/A,,Overcast,120,2013-02-21 02:55:00
9:55 PM,16.0,9.0,74,30.30,10.0,ESE,12.7,-,N/A,,Overcast,120,2013-02-21 03:55:00
10:55 PM,15.8,8.6,73,30.21,10.0,ESE,11.5,-,N/A,,Overcast,120,2013-02-21 04:55:00
11:55 PM,15.1,8.1,74,30.30,10.0,SE,11.5,-,N/A,,Overcast,130,2013-02-21 05:55:00